Home   Weather   Enns   Past weeks

Flag for Austria Past Weather in Enns, Upper Austria, Austria — Yesterday and Last 2 Weeks

Now
28 °F

Overcast.


Feels Like: N/A
Forecast: 22 / 37 °F
Wind: N/A

Location: Linz / Hoersching-Flughafen

Current Time: Dec 4, 2016 at 11:42:09 pm

Latest Report: Dec 4, 2016 at 11:00 pm


Visibility: 6 mi

Pressure: 30.47 "Hg

Humidity: 91%

Dew Point: 26 °F

Location of EnnsLocation

Past Weather in Enns — Graph

°F

Enns Temperature Yesterday

Maximum temperature yesterday: 35 °F (at 3:00 pm)
Minimum temperature yesterday: 23 °F (at 9:00 am)
Average temperature yesterday: 27 °F

High & Low Weather Summary for the Past Weeks

 TemperatureHumidityPressure
High58 °F (Nov 21, 3:00 pm)100% (Nov 20, 10:00 pm)30.62 "Hg (Nov 20, 10:00 pm)
Low20 °F (Nov 30, 8:00 am)45% (Nov 28, 1:00 pm)29.74 "Hg (Nov 21, 3:00 pm)
Average37 °F86%30.18 "Hg
* Reported Nov 19 10:00 pm — Dec 4 10:00 pm, Enns, Weather by CustomWeather, © 2016

Note: Actual official high and low records may vary slightly from our data, if they occured in-between our weather recording intervals... More about our weather records

Advertising

Enns Weather History for the Previous 24 Hours

Scroll right to see more
 ConditionsComfort  
Time TempWeatherWind HumidityBarometerVisibility
10:00 pm
Sun, Dec 4
25 °FPassing clouds.N/A92%30.47 "Hg5 mi
9:00 pm27 °FPassing clouds.N/A91%30.47 "Hg6 mi
8:00 pm26 °FPassing clouds.3 mph91%30.46 "Hg6 mi
7:00 pm26 °FPassing clouds.N/A91%30.46 "Hg6 mi
6:00 pm28 °FPassing clouds.N/A88%30.45 "Hg7 mi
5:00 pm29 °FPassing clouds.N/A85%30.44 "Hg7 mi
4:00 pm32 °FPartly sunny.N/A80%30.42 "Hg11 mi
3:00 pm33 °FScattered clouds.N/A77%30.41 "Hg12 mi
2:00 pm34 °FScattered clouds.N/A73%30.40 "Hg12 mi
1:00 pm33 °FPassing clouds.N/A70%30.41 "Hg13 mi
12:00 pm32 °FPassing clouds.N/A71%30.42 "Hg22 mi
11:00 am30 °FScattered clouds.N/A77%30.43 "Hg14 mi
10:00 am27 °FScattered clouds.N/A87%30.44 "Hg12 mi
9:00 am24 °FScattered clouds.N/A91%30.43 "Hg8 mi
8:00 am22 °FScattered clouds.N/A93%30.42 "Hg8 mi
7:00 am22 °FPassing clouds.N/A93%30.40 "Hg11 mi
6:00 am22 °FPassing clouds.N/A92%30.40 "Hg13 mi
5:00 am21 °FCold.N/A92%30.40 "Hg11 mi
4:00 am23 °FCold.N/A90%30.40 "Hg16 mi
3:00 am22 °FCold.N/A87%30.40 "Hg17 mi
2:00 am24 °FCold.N/A86%30.40 "Hg19 mi
1:00 am24 °FCold.N/A88%30.39 "Hg22 mi
12:00 am25 °FChilly.N/A84%30.39 "Hg22 mi
11:00 pm
Sat, Dec 3
26 °FPassing clouds.N/A82%30.37 "Hg19 mi
Weather by CustomWeather, © 2016

See weather overviewHow to use our weather pages